NJE92X EHBK-LIML

Flight info

Callsign NJE92X
Flight time N/A
Altitude 23000
Route LNO N852 DIK/N0435F410 DCT NATOR N850 GERSA DCT ODINA
Aircraft C25C/M-SDE2E3FGHRWXY/LB1

Departure

Time N/A
Airport Maastricht Aachen Airport (EHBK)

Arrival

Time 2026-04-28 21:46
Airport Milano Linate Airport (LIML)
Time Latitude Longitude Altitude Speed Heading
2026-04-28 20:49 50.06630 6.01343 38136 ft 372 kts 167°
2026-04-28 20:49 50.04213 6.02641 38675 ft 373 kts 161°
2026-04-28 20:49 50.01780 6.04036 39147 ft 371 kts 162°
2026-04-28 20:50 49.99353 6.05412 39574 ft 371 kts 162°
2026-04-28 20:50 49.96926 6.06800 39987 ft 372 kts 161°
2026-04-28 20:50 49.94502 6.08195 40389 ft 372 kts 162°
2026-04-28 20:50 49.92074 6.09586 40578 ft 374 kts 162°
2026-04-28 20:51 49.89593 6.10996 40573 ft 385 kts 161°
2026-04-28 20:51 49.87101 6.12684 40577 ft 397 kts 153°
2026-04-28 20:51 49.84728 6.14995 40588 ft 409 kts 145°
2026-04-28 20:52 49.80311 6.20862 40576 ft 427 kts 140°
2026-04-28 20:52 49.75785 6.26976 40836 ft 435 kts 140°
2026-04-28 20:52 49.73495 6.30066 41018 ft 437 kts 140°
2026-04-28 20:53 49.68907 6.36266 41132 ft 446 kts 140°
2026-04-28 20:53 49.64198 6.42628 41159 ft 453 kts 140°
2026-04-28 20:54 49.59449 6.49050 41157 ft 452 kts 140°
2026-04-28 20:54 49.54756 6.55407 41136 ft 447 kts 140°
2026-04-28 20:55 49.49987 6.61445 41114 ft 442 kts 141°
2026-04-28 20:55 49.45386 6.67688 41113 ft 440 kts 140°
2026-04-28 20:56 49.40752 6.73783 41112 ft 437 kts 141°
2026-04-28 20:56 49.36152 6.79869 41108 ft 436 kts 141°
2026-04-28 20:57 49.31499 6.86006 41106 ft 445 kts 141°
2026-04-28 20:57 49.26752 6.92242 41126 ft 453 kts 141°
2026-04-28 20:58 49.21929 6.98570 41110 ft 459 kts 141°
2026-04-28 20:58 49.17045 7.04951 41142 ft 464 kts 141°
2026-04-28 20:59 49.12155 7.11332 41134 ft 463 kts 141°
2026-04-28 20:59 49.07346 7.17588 41118 ft 447 kts 141°
2026-04-28 21:00 49.02672 7.23653 41111 ft 435 kts 142°
2026-04-28 21:00 48.98108 7.29559 41102 ft 426 kts 142°
2026-04-28 21:01 48.93579 7.35399 41093 ft 436 kts 142°
2026-04-28 21:01 48.88868 7.41468 41097 ft 450 kts 142°
2026-04-28 21:02 48.84039 7.47669 41114 ft 459 kts 142°
2026-04-28 21:02 48.79118 7.53970 41091 ft 465 kts 142°
2026-04-28 21:03 48.74132 7.60339 41097 ft 471 kts 142°
2026-04-28 21:03 48.69181 7.66650 41092 ft 467 kts 142°
2026-04-28 21:04 48.64174 7.73010 41082 ft 472 kts 142°
2026-04-28 21:04 48.59118 7.79419 41082 ft 476 kts 142°
2026-04-28 21:05 48.54078 7.85791 41082 ft 469 kts 142°
2026-04-28 21:05 48.49079 7.92088 41078 ft 467 kts 142°
2026-04-28 21:06 48.44085 7.98364 41077 ft 470 kts 142°
2026-04-28 21:06 48.39037 8.04692 41081 ft 475 kts 142°
2026-04-28 21:07 48.33943 8.11064 41079 ft 474 kts 142°
2026-04-28 21:07 48.28916 8.17334 41081 ft 463 kts 142°
2026-04-28 21:08 48.24036 8.23405 41074 ft 457 kts 143°
2026-04-28 21:08 48.19044 8.29334 41087 ft 457 kts 150°
2026-04-28 21:09 48.13242 8.33044 41070 ft 454 kts 170°
2026-04-28 21:09 48.07014 8.34524 41094 ft 455 kts 175°
2026-04-28 21:10 48.00757 8.36076 41106 ft 453 kts 174°
2026-04-28 21:10 47.94593 8.37558 41102 ft 444 kts 175°
2026-04-28 21:11 47.88534 8.39014 41085 ft 438 kts 175°
2026-04-28 21:11 47.82558 8.40455 41076 ft 433 kts 175°
2026-04-28 21:12 47.76643 8.41864 41082 ft 429 kts 175°
2026-04-28 21:12 47.70726 8.43274 41077 ft 435 kts 175°
2026-04-28 21:13 47.64676 8.44304 41091 ft 441 kts 179°
2026-04-28 21:13 47.58512 8.45250 41105 ft 448 kts 178°
2026-04-28 21:14 47.53330 8.46001 41108 ft 452 kts 178°
2026-04-28 21:14 47.47043 8.46928 41098 ft 455 kts 178°
2026-04-28 21:15 47.40769 8.47850 41105 ft 451 kts 179°
2026-04-28 21:15 47.34538 8.48758 41104 ft 449 kts 179°
2026-04-28 21:16 47.28330 8.49667 41099 ft 448 kts 179°
2026-04-28 21:16 47.22142 8.50568 41091 ft 446 kts 179°
2026-04-28 21:17 47.15976 8.51465 41090 ft 445 kts 179°
2026-04-28 21:17 47.09817 8.52358 41086 ft 444 kts 179°
2026-04-28 21:18 47.03707 8.53246 41086 ft 443 kts 179°
2026-04-28 21:18 46.97590 8.54129 41087 ft 441 kts 179°
2026-04-28 21:19 46.91479 8.55009 41095 ft 441 kts 179°
2026-04-28 21:19 46.85403 8.55881 41089 ft 438 kts 179°
2026-04-28 21:20 46.82401 8.56301 40772 ft 429 kts 178°
2026-04-28 21:20 46.79443 8.56744 40221 ft 425 kts 179°
2026-04-28 21:20 46.76508 8.57161 39667 ft 422 kts 179°
2026-04-28 21:20 46.73590 8.57573 39110 ft 419 kts 179°
2026-04-28 21:21 46.70693 8.57986 38512 ft 417 kts 179°
2026-04-28 21:21 46.67829 8.58400 37953 ft 410 kts 180°
2026-04-28 21:21 46.65010 8.58790 37424 ft 404 kts 180°
2026-04-28 21:21 46.62219 8.59197 36891 ft 401 kts 179°
2026-04-28 21:22 46.59438 8.59597 36366 ft 402 kts 180°
2026-04-28 21:22 46.56650 8.59988 35833 ft 403 kts 180°
2026-04-28 21:22 46.53852 8.60379 35301 ft 406 kts 180°
2026-04-28 21:22 46.51029 8.60775 34765 ft 411 kts 180°
2026-04-28 21:23 46.48163 8.61189 34219 ft 416 kts 180°
2026-04-28 21:23 46.45271 8.61594 33634 ft 419 kts 180°
2026-04-28 21:23 46.42356 8.62015 33072 ft 422 kts 180°
2026-04-28 21:23 46.39426 8.62423 32502 ft 424 kts 180°
2026-04-28 21:24 46.36482 8.62840 31943 ft 425 kts 180°
2026-04-28 21:24 46.33533 8.63251 31385 ft 427 kts 179°
2026-04-28 21:24 46.30609 8.63670 30823 ft 429 kts 180°
2026-04-28 21:24 46.27630 8.64075 30248 ft 429 kts 179°
2026-04-28 21:25 46.24653 8.64495 29648 ft 429 kts 179°
2026-04-28 21:25 46.21684 8.64931 29067 ft 429 kts 179°
2026-04-28 21:25 46.18712 8.65343 28512 ft 428 kts 179°
2026-04-28 21:25 46.15746 8.65746 27905 ft 429 kts 178°
2026-04-28 21:26 46.12818 8.66738 27306 ft 438 kts 163°
2026-04-28 21:26 46.10010 8.68435 26734 ft 439 kts 157°
2026-04-28 21:26 46.07386 8.70728 26166 ft 443 kts 149°
2026-04-28 21:26 46.04984 8.73527 25555 ft 446 kts 140°
2026-04-28 21:27 46.02711 8.76573 24962 ft 446 kts 140°
2026-04-28 21:27 46.00404 8.79556 24374 ft 445 kts 140°
2026-04-28 21:27 45.98102 8.82525 23792 ft 439 kts 140°
2026-04-28 21:27 45.95869 8.85410 23176 ft 424 kts 140°
2026-04-28 21:28 45.93724 8.88195 22621 ft 419 kts 140°
2026-04-28 21:28 45.91555 8.90996 22071 ft 420 kts 141°
2026-04-28 21:28 45.89367 8.93811 21508 ft 419 kts 140°
2026-04-28 21:28 45.87222 8.96585 20962 ft 410 kts 140°
2026-04-28 21:29 45.85114 8.99293 20424 ft 403 kts 140°
2026-04-28 21:29 45.83043 9.01965 19895 ft 398 kts 140°
2026-04-28 21:29 45.80989 9.04593 19356 ft 394 kts 141°
2026-04-28 21:29 45.78954 9.07215 18846 ft 394 kts 140°
2026-04-28 21:30 45.76898 9.09841 18319 ft 398 kts 140°
2026-04-28 21:30 45.74833 9.12496 17762 ft 399 kts 140°
2026-04-28 21:30 45.72765 9.15134 17222 ft 398 kts 140°
2026-04-28 21:30 45.70709 9.17771 16687 ft 395 kts 140°
2026-04-28 21:31 45.68671 9.20367 16159 ft 389 kts 140°
2026-04-28 21:31 45.66668 9.22931 15647 ft 384 kts 140°
2026-04-28 21:31 45.64685 9.25449 15141 ft 380 kts 140°
2026-04-28 21:31 45.62746 9.27923 14644 ft 377 kts 140°
2026-04-28 21:32 45.60772 9.30429 14142 ft 374 kts 140°
2026-04-28 21:32 45.58860 9.32864 13628 ft 371 kts 140°
2026-04-28 21:32 45.56936 9.35302 13133 ft 368 kts 140°
2026-04-28 21:32 45.55033 9.37719 12757 ft 361 kts 140°
2026-04-28 21:33 45.53235 9.39898 12290 ft 318 kts 147°
2026-04-28 21:33 45.51321 9.40994 12143 ft 283 kts 166°
2026-04-28 21:33 45.49390 9.41380 12119 ft 280 kts 179°
2026-04-28 21:33 45.47454 9.41569 12114 ft 278 kts 176°
2026-04-28 21:34 45.45521 9.41810 11796 ft 278 kts 177°
2026-04-28 21:34 45.43622 9.42004 11336 ft 272 kts 177°
2026-04-28 21:34 45.41742 9.42202 10884 ft 270 kts 177°
2026-04-28 21:34 45.39872 9.42401 10440 ft 269 kts 176°
2026-04-28 21:35 45.38015 9.42602 9996 ft 267 kts 176°
2026-04-28 21:35 45.36165 9.42801 9523 ft 266 kts 176°
2026-04-28 21:35 45.34321 9.42997 9031 ft 266 kts 176°
2026-04-28 21:35 45.32469 9.43196 8480 ft 267 kts 175°
2026-04-28 21:36 45.30609 9.43394 7947 ft 268 kts 176°
2026-04-28 21:36 45.28747 9.43593 7422 ft 269 kts 175°
2026-04-28 21:36 45.26879 9.43794 6906 ft 269 kts 175°
2026-04-28 21:36 45.25010 9.43990 6393 ft 269 kts 175°
2026-04-28 21:37 45.23208 9.44186 6049 ft 251 kts 175°
2026-04-28 21:37 45.21558 9.44357 5867 ft 229 kts 174°
2026-04-28 21:37 45.19989 9.44359 5368 ft 225 kts 193°
2026-04-28 21:37 45.18767 9.43065 4881 ft 225 kts 237°
2026-04-28 21:38 45.18318 9.40958 4387 ft 225 kts 260°
2026-04-28 21:38 45.18090 9.38775 4005 ft 224 kts 261°
2026-04-28 21:38 45.17904 9.36570 3657 ft 227 kts 262°
2026-04-28 21:38 45.17828 9.34340 3309 ft 229 kts 281°
2026-04-28 21:39 45.18667 9.32481 3068 ft 225 kts 318°
2026-04-28 21:39 45.19832 9.31061 3057 ft 214 kts 324°
2026-04-28 21:39 45.21151 9.30255 3104 ft 205 kts 354°
2026-04-28 21:39 45.22556 9.30319 3081 ft 201 kts
2026-04-28 21:40 45.23890 9.30071 3222 ft 193 kts 352°
2026-04-28 21:40 45.25255 9.29844 3139 ft 203 kts 354°
2026-04-28 21:40 45.26633 9.29613 3049 ft 196 kts 357°
2026-04-28 21:40 45.27968 9.29464 3021 ft 194 kts 357°
2026-04-28 21:41 45.29293 9.29321 3001 ft 185 kts 357°
2026-04-28 21:41 45.30543 9.29187 2850 ft 178 kts 358°
2026-04-28 21:41 45.31727 9.29071 2644 ft 151 kts 357°
2026-04-28 21:41 45.32688 9.28967 2440 ft 134 kts 358°
2026-04-28 21:42 45.33584 9.28864 2268 ft 122 kts 358°
2026-04-28 21:42 45.34385 9.28779 2104 ft 110 kts 358°
2026-04-28 21:42 45.35112 9.28713 1964 ft 103 kts
2026-04-28 21:42 45.35826 9.28627 1837 ft 103 kts 358°
2026-04-28 21:43 45.36549 9.28562 1700 ft 104 kts 358°
2026-04-28 21:43 45.37266 9.28476 1568 ft 104 kts 359°
2026-04-28 21:43 45.37987 9.28407 1430 ft 104 kts 356°
2026-04-28 21:43 45.38701 9.28317 1317 ft 102 kts 358°
2026-04-28 21:44 45.39403 9.28253 1203 ft 99 kts 358°
2026-04-28 21:44 45.40106 9.28178 1079 ft 103 kts 357°
2026-04-28 21:44 45.40829 9.28093 975 ft 105 kts 356°
2026-04-28 21:44 45.41535 9.28023 818 ft 101 kts 356°
2026-04-28 21:45 45.42229 9.27945 671 ft 97 kts 356°
2026-04-28 21:45 45.42893 9.27874 524 ft 98 kts 356°
2026-04-28 21:45 45.43552 9.27806 387 ft 93 kts 356°
2026-04-28 21:45 45.44141 9.27745 352 ft 75 kts 358°
2026-04-28 21:46 45.44599 9.27697 356 ft 58 kts 355°
2026-04-28 21:46 45.44936 9.27662 355 ft 38 kts 355°
2026-04-28 21:46 45.45172 9.27638 351 ft 26 kts 356°
2026-04-28 21:46 45.45263 9.27639 351 ft 18 kts
2026-04-28 21:47 45.45390 9.27716 352 ft 21 kts 27°
2026-04-28 21:47 45.45459 9.27861 353 ft 20 kts 89°
2026-04-28 21:47 45.45455 9.28063 353 ft 21 kts 90°
2026-04-28 21:47 45.45530 9.28157 353 ft 17 kts
2026-04-28 21:48 45.45647 9.28159 353 ft 16 kts
2026-04-28 21:48 45.45764 9.28161 355 ft 17 kts
2026-04-28 21:48 45.45870 9.28096 353 ft 15 kts 314°
2026-04-28 21:48 45.45891 9.27985 358 ft 13 kts 200°
2026-04-28 21:49 45.45809 9.27992 358 ft 7 kts 131°
2026-04-28 21:49 45.45808 9.28065 353 ft 8 kts 90°
2026-04-28 21:49 45.45808 9.28084 353 ft 0 kts 90°